sat.trackr.live / text

‹ back to catalog

JILIN GAOFEN OBJECT C

NORAD 68693 · 2026-080C

PAYLOAD ACTIVE UNKNOWN

§ Identity

Operator
Country
PRC
Launch date
2026-04-14
Launch site
JSC
Launch vehicle
Mass (kg)
RCS (m²)

External: N2YO · Heavens-Above · Gunter

§ Orbital elements

Epoch: 2026-09-20T04:23:08.666016Z

Period
95.47 min
Inclination
97.6528°
Eccentricity
0.0013841
Mean motion
15.08308257 rev/d
Perigee alt
531.8 km
Apogee alt
550.9 km
Semi-major
6,919.5 km
B*
1.6882e-4
RAAN
338.4676°
Arg perigee
86.0568°
Mean anomaly
274.2242°
Rev number
2,398

§ Raw data

JILIN GAOFEN OBJECT C1 68693U 26080C   26263.18273919  .00002560  00000+0  16882-3 0  99972 68693  97.6528 338.4676 0013841  86.0568 274.2242 15.08308257 23982

JSON: /api/v1/satellites/68693 · /tle

For live sub-satellite position, see the globe view (requires WebGL).

§ Visibility from observer

Set your observer location to see the next 7 days of passes ≥ 10°. The values pass through the URL so the page stays shareable.

No JS? Fill the form by hand. The geolocation button needs JavaScript.